Temperature
27 26 25 24 22 21 21 21 20 20 20 19 19 19 19 19 19 19 19 19 19 19 19 19 19 18 18 18 18 18 18 18 19 19 19 19 19 19 19 19 19 19 19
27 26 25 24 23 22 21 21 21 20 20 20 20 20 20 20 19 19 19 19 19 19 19 19 19 19 19 19 19 19 18 19 19 19 19 19 19 19 19 19 19 19 19
28 26 25 24 23 22 21 21 21 20 20 20 20 20 20 20 20 20 19 19 19 19 19 19 19 19 19 19 19 19 19 19 19 19 19 19 19 19 20 20 19 19 19
28 27 26 25 24 23 22 21 21 21 21 20 20 20 20 20 20 20 20 20 19 19 19 19 19 19 19 19 19 19 19 19 19 19 19 19 19 19 19 19 19 19 19
29 27 26 25 25 24 23 22 21 21 21 21 20 20 20 20 20 20 20 20 19 19 19 19 19 19 19 19 19 19 19 19 19 19 19 19 19 19 19 19 19 19 19
29 28 27 26 25 24 23 22 21 21 21 21 20 20 20 20 20 20 20 20 19 19 19 19 19 19 19 19 19 18 19 19 19 19 19 19 19 19 19 19 19 19 19
30 28 27 26 25 24 24 22 22 21 21 21 20 20 20 20 20 20 20 20 20 19 19 19 19 19 19 19 18 18 19 18 18 19 19 19 19 19 19 19 19 19 19
30 29 28 27 26 25 24 23 22 22 21 21 21 20 20 20 20 20 20 20 20 20 20 19 19 19 19 18 18 18 18 18 18 18 18 18 18 19 19 19 19 18 18
30 29 28 27 26 25 24 23 22 22 21 21 21 21 20 20 20 20 20 20 20 20 20 19 19 19 19 18 18 18 18 18 18 18 18 18 18 18 18 18 18 18 18
29 29 28 27 26 25 24 24 23 22 22 21 21 21 20 20 20 20 20 20 19 19 19 19 19 19 18 18 18 18 18 18 18 18 18 18 18 18 18 18 18 18 18
29 28 28 27 26 25 24 24 23 22 22 21 21 20 20 20 20 20 20 20 19 19 19 19 19 18 18 18 18 18 18 18 18 18 18 18 18 18 18 18 18 18 18
28 27 27 27 26 25 24 23 23 22 21 21 20 20 20 20 20 20 19 19 19 19 19 19 18 18 18 18 18 18 18 18 18 18 18 18 18 18 18 18 18 18 18
27 26 26 26 26 25 24 23 23 22 21 20 20 20 20 19 19 19 19 19 19 19 19 18 18 18 18 18 18 18 18 18 17 17 17 17 17 17 18 17 17 17 17
26 25 25 25 25 24 24 23 22 22 21 21 20 19 19 19 19 19 19 19 19 19 18 18 18 18 18 18 18 17 17 17 17 17 17 17 17 17 17 17 17 17 17
25 25 24 24 23 23 23 22 22 21 21 20 20 19 19 19 19 18 19 18 18 18 18 18 18 18 18 17 18 18 17 17 17 17 17 17 17 17 17 17 17 17 17
24 23 23 22 22 22 21 21 21 21 20 20 19 19 19 18 18 18 18 18 18 18 18 18 17 17 17 17 18 18 17 17 17 17 17 17 17 17 17 17 17 17 16
23 22 22 21 21 21 20 20 20 20 19 19 19 18 18 18 18 18 18 18 17 17 17 17 17 17 17 17 17 17 17 17 17 17 17 17 17 17 17 17 16 17 17
22 21 21 20 20 20 20 19 19 19 19 19 18 18 18 18 18 17 17 17 17 17 17 17 17 17 17 17 17 17 17 17 17 17 17 17 17 17 17 16 16 16 16
21 20 20 20 20 19 19 19 19 19 18 18 18 18 18 17 17 17 17 17 17 17 17 17 17 17 17 17 17 17 17 16 16 16 16 16 16 16 16 16 16 16 16
20 20 19 19 19 19 18 18 18 18 18 18 17 17 17 17 17 17 17 17 17 17 17 17 17 17 17 17 17 17 17 16 16 16 16 16 16 16 16 16 15 15 16
19 19 19 18 18 18 18 18 17 17 17 17 17 17 17 17 17 17 17 16 16 16 17 17 17 17 17 17 17 17 16 16 16 16 16 16 16 16 15 15 15 15 15
18 18 18 17 17 17 17 17 17 17 16 16 16 16 16 16 16 16 16 16 16 16 16 16 16 16 16 16 17 17 16 16 16 15 15 15 15 15 15 15 15 15 14
18 18 17 17 17 17 17 16 16 16 16 16 16 16 16 16 16 16 16 16 16 16 16 16 16 16 16 16 16 16 16 15 15 15 15 15 14 14 14 14 14 14 14
18 17 17 17 16 16 16 16 16 16 16 16 16 16 16 16 16 16 15 15 16 16 16 16 16 16 16 16 16 15 15 15 14 14 14 14 14 14 14 14 14 14 14
17 17 16 16 16 16 15 15 15 16 15 15 15 15 15 15 15 15 15 15 16 16 16 16 16 16 15 15 15 15 15 14 14 14 14 13 13 13 13 13 13 13 13
16 16 16 16 15 15 15 15 15 15 15 15 15 15 15 15 15 15 15 15 15 15 15 15 15 15 15 15 15 14 14 14 14 13 13 13 13 13 13 13 13 13 13
Wind_Speed
17 17 17 17 16 14 13 11 10 10 8 6 6 5 5 4 4 5 6 7 6 5 4 3 3 4 4 4 3 3 3 3 3 3 3 4 5 4 4 3 3 4 4
17 18 17 17 17 15 14 13 11 11 9 6 5 5 4 4 5 4 5 7 6 5 5 4 3 3 3 3 3 3 3 3 3 2 2 2 2 2 4 4 4 4 3
18 18 18 17 17 16 15 14 12 11 10 8 6 5 4 3 4 4 5 5 6 6 4 4 4 3 3 3 4 4 4 3 3 2 2 1 2 2 2 2 2 3 2
18 18 19 18 18 17 16 13 12 11 10 9 8 8 6 6 5 4 5 6 6 5 5 4 4 3 3 3 4 4 3 4 3 2 2 2 1 1 2 2 1 3 3
16 18 19 17 17 17 16 14 12 11 10 9 9 8 6 5 4 5 5 6 6 6 5 5 4 4 3 3 3 2 3 3 4 3 2 2 2 4 3 3 2 1 2
15 16 17 15 15 15 15 15 13 12 11 11 10 9 8 7 6 5 5 5 5 5 6 5 4 4 4 4 3 3 4 4 4 3 3 2 2 3 3 3 2 2 2
13 14 16 16 15 14 14 15 15 13 12 12 11 9 8 7 7 6 6 6 5 5 6 6 5 5 4 4 4 4 4 4 4 4 4 3 4 3 2 2 2 2 2
13 14 15 15 14 15 14 14 15 14 13 12 10 9 8 8 7 7 6 6 4 4 5 6 6 6 5 5 4 4 4 4 4 6 5 4 4 3 2 2 2 2 2
10 12 13 13 13 14 13 14 14 14 13 13 10 9 8 8 7 6 6 5 4 5 5 5 6 5 5 5 4 4 5 4 4 5 4 4 4 4 3 2 2 2 3
4 7 9 12 12 13 12 12 13 13 12 12 10 10 9 8 6 5 6 5 4 4 4 4 5 5 6 6 5 4 4 4 5 4 4 4 4 3 3 3 3 3 3
3 3 6 8 10 11 11 11 11 11 11 11 9 8 8 8 6 5 6 5 5 5 4 5 5 5 5 5 5 5 5 5 4 4 4 4 4 3 3 3 3 3 2
1 2 3 5 8 10 10 9 9 11 10 8 8 8 7 7 7 7 6 5 5 5 5 5 5 5 5 5 5 5 5 5 5 5 4 5 5 5 4 3 3 3 3
1 1 1 4 6 7 8 8 8 9 9 8 7 7 7 7 7 6 5 5 5 5 4 4 5 5 5 5 4 5 5 5 5 4 4 5 5 5 4 4 4 3 3
2 2 2 3 4 5 5 6 7 7 7 8 8 6 6 6 6 5 5 5 5 5 5 4 5 4 4 4 4 5 5 5 5 4 5 5 5 5 4 4 4 4 3
3 2 3 4 5 5 5 5 5 5 6 7 7 6 5 5 4 4 4 4 5 6 5 5 5 5 5 5 4 4 6 5 5 4 4 5 4 5 4 4 3 3 3
2 3 3 4 4 4 4 4 4 4 5 6 6 6 5 5 5 4 4 5 5 5 5 5 5 6 6 4 4 4 5 4 5 5 4 4 4 5 6 4 3 3 4
1 2 3 3 2 3 4 3 3 4 4 5 5 5 6 5 5 6 5 4 4 5 5 5 5 5 5 5 4 5 4 5 5 5 4 5 5 3 3 4 4 3 4
2 1 1 2 2 2 3 3 3 4 4 5 5 5 5 5 5 5 5 4 4 4 4 5 5 5 5 6 5 5 5 6 5 5 5 5 4 4 3 4 4 4 4
1 1 1 1 1 2 3 3 4 3 4 4 4 5 5 5 5 4 3 3 3 4 4 4 4 4 4 6 6 5 5 5 6 6 5 6 5 4 5 4 4 4 4
3 2 1 1 2 2 2 4 4 4 3 3 4 4 5 5 5 5 4 3 3 4 4 3 3 4 4 6 7 6 5 5 4 3 4 5 5 5 5 5 5 5 5
3 2 2 2 2 1 0 2 2 3 2 2 3 3 4 5 5 5 4 4 5 4 4 4 5 5 6 7 9 8 5 5 4 4 3 1 3 4 5 5 5 5 4
3 2 2 2 2 1 0 1 1 1 1 1 2 3 3 5 5 4 4 5 5 5 6 6 6 6 6 7 8 9 8 5 4 3 2 1 2 3 4 5 6 6 4
2 2 2 3 2 2 1 0 0 1 1 1 2 3 4 4 4 5 5 6 6 6 6 6 6 5 4 4 7 8 7 6 4 3 3 2 3 3 4 7 7 6 5
2 2 2 2 2 2 2 1 0 1 1 2 3 3 4 4 4 4 5 6 5 5 5 5 5 4 3 2 2 3 3 3 4 3 3 3 4 4 5 4 4 5 5
1 1 1 1 0 0 1 1 1 1 1 3 3 4 5 5 4 5 5 5 3 3 4 3 3 3 3 2 2 2 2 2 1 2 3 4 3 3 3 4 4 4 4
1 1 1 1 1 1 2 2 2 2 3 3 4 5 4 4 4 4 3 3 5 6 6 5 5 4 4 4 3 2 2 3 2 2 4 5 5 5 4 4 4 3 3
Wind_Direction
178 173 173 170 170 169 170 175 181 171 178 186 190 194 196 199 189 185 177 179 197 197 206 244 195 206 213 222 221 233 238 246 243 262 280 258 239 213 213 213 221 217 217
179 174 177 177 176 174 174 177 182 178 183 184 190 191 194 204 195 198 166 177 191 197 206 216 226 217 211 220 223 222 254 261 238 232 274 280 284 263 228 201 207 209 200
181 176 179 181 178 176 177 182 181 176 183 180 187 201 188 215 205 181 170 188 193 195 211 195 219 226 218 213 224 222 229 250 262 237 225 237 252 274 264 223 196 189 190
181 178 182 184 183 179 180 179 175 176 181 182 192 197 195 202 204 186 178 189 197 197 201 204 210 223 234 212 223 213 235 242 260 257 235 228 239 254 294 301 235 199 199
182 180 183 184 185 182 180 178 173 177 180 189 195 201 207 206 199 192 182 188 193 199 205 201 200 211 234 233 227 213 233 245 250 260 249 240 238 234 228 252 249 244 215
184 181 179 178 185 183 179 176 173 179 183 192 199 201 211 210 207 198 185 194 197 198 207 203 194 207 229 237 232 228 230 242 257 269 265 238 233 237 234 237 232 226 239
183 183 179 178 182 183 180 176 174 180 185 193 202 200 209 211 213 209 203 207 204 199 201 204 192 210 219 226 230 227 238 235 241 248 258 260 254 253 243 237 247 231 239
186 188 183 178 181 183 179 177 176 181 187 194 200 201 203 210 214 215 219 206 212 209 186 188 192 208 220 228 220 231 234 234 236 246 247 259 265 261 241 233 242 254 245
186 182 177 176 178 182 180 180 175 181 189 194 194 197 201 210 215 204 214 221 217 218 192 193 200 207 217 228 225 230 233 230 233 245 246 248 259 260 251 242 228 238 255
177 175 176 179 178 181 180 179 176 179 184 191 194 198 196 204 215 212 212 215 216 219 194 197 204 212 219 223 228 240 233 228 233 235 241 245 252 264 257 240 231 232 237
168 175 181 179 176 179 179 178 172 174 181 188 190 196 193 200 208 213 213 215 215 216 207 206 210 217 220 222 224 235 233 230 237 241 234 235 248 254 263 257 244 239 223
137 159 165 171 174 176 175 173 173 176 178 181 184 191 190 196 205 210 208 207 209 212 206 207 215 222 222 224 224 238 240 235 236 236 237 237 237 236 255 258 246 240 223
115 113 109 148 161 167 166 169 170 176 176 172 174 181 191 197 204 206 204 203 204 205 206 203 213 222 226 225 226 237 245 242 243 243 242 241 238 233 233 242 246 241 238
89 94 78 107 120 123 135 146 156 163 168 167 172 176 190 193 196 200 197 200 201 202 201 208 214 219 227 226 230 239 243 244 246 246 244 244 239 234 236 240 245 250 253
71 83 86 84 98 108 115 125 137 144 159 162 172 177 187 191 189 192 194 198 202 206 199 205 215 219 224 224 223 240 242 244 247 249 247 245 233 225 228 237 232 238 245
59 71 90 99 106 122 128 128 132 138 149 163 174 170 176 186 189 191 191 197 203 208 202 206 215 221 227 207 207 221 248 246 243 248 251 252 231 224 214 219 221 224 237
22 51 69 87 116 138 134 136 148 154 161 172 177 180 183 189 190 200 192 194 200 208 213 215 214 220 217 209 204 214 240 246 242 240 241 253 250 224 219 220 224 241 248
343 33 73 103 113 127 139 149 161 167 172 173 186 189 192 196 198 204 201 201 209 217 220 225 219 224 220 207 210 219 235 246 244 237 231 235 251 246 220 230 228 233 245
73 49 92 75 91 129 156 174 183 188 185 178 191 193 195 201 198 201 205 204 214 222 227 229 227 236 226 201 204 211 246 245 243 238 233 224 224 213 209 220 227 239 245
83 73 55 57 68 95 166 184 187 191 198 197 198 193 192 197 199 196 197 212 216 222 232 238 239 243 237 208 201 203 242 250 246 239 232 221 210 205 204 219 225 233 243
62 66 61 61 53 32 45 200 206 208 219 212 205 199 201 206 206 195 193 207 222 224 228 236 233 231 228 208 199 199 229 254 255 242 235 212 173 194 215 227 236 239 249
58 50 62 59 53 39 60 186 204 228 250 241 230 208 204 220 216 199 205 213 222 226 230 233 234 234 222 210 201 201 215 237 258 261 242 187 173 212 230 232 235 243 251
87 75 84 69 59 63 89 30 186 177 218 266 252 220 213 214 212 209 217 224 225 229 230 226 231 231 216 197 185 196 214 234 239 263 276 275 253 247 248 238 238 238 240
61 63 74 77 50 26 12 355 298 188 174 257 264 234 228 220 213 217 227 229 229 233 231 233 235 228 207 193 176 199 216 228 236 260 269 256 244 241 249 253 247 233 237
35 61 78 119 144 345 321 310 309 265 223 237 250 242 236 225 216 219 234 235 230 236 240 246 248 245 234 198 167 197 228 239 245 271 259 253 242 238 236 238 235 231 226
13 8 347 340 333 306 302 297 300 289 267 256 257 256 243 224 225 226 245 241 231 221 216 215 219 224 206 202 216 217 214 207 202 236 251 250 246 245 243 241 242 240 237
Height
1492 1496 1501 1504 1507 1510 1513 1516 1518 1521 1523 1526 1528 1530 1532 1533 1535 1536 1537 1537 1538 1539 1540 1540 1541 1542 1542 1543 1544 1545 1545 1546 1546 1547 1547 1547 1547 1547 1547 1548 1548 1548 1548
1488 1492 1497 1501 1504 1507 1510 1513 1516 1518 1521 1523 1526 1528 1530 1532 1533 1534 1535 1536 1537 1538 1538 1538 1539 1540 1541 1542 1542 1543 1544 1544 1545 1546 1546 1545 1546 1545 1546 1546 1546 1547 1547
1482 1487 1492 1496 1500 1503 1506 1509 1512 1515 1518 1521 1524 1527 1528 1530 1532 1533 1533 1534 1535 1536 1536 1537 1538 1539 1540 1540 1541 1541 1542 1543 1544 1544 1545 1544 1544 1544 1544 1544 1545 1545 1545
1477 1482 1487 1492 1496 1499 1503 1506 1509 1512 1515 1518 1521 1523 1525 1527 1528 1530 1531 1532 1533 1534 1534 1535 1536 1537 1538 1538 1539 1540 1540 1541 1541 1542 1543 1543 1543 1543 1542 1543 1543 1543 1543
1472 1477 1482 1487 1492 1496 1499 1503 1506 1509 1512 1515 1518 1520 1523 1525 1526 1528 1529 1530 1531 1532 1533 1533 1534 1535 1535 1536 1537 1538 1538 1539 1539 1540 1540 1540 1541 1541 1541 1540 1541 1541 1541
1468 1473 1478 1483 1488 1492 1496 1499 1502 1505 1509 1512 1515 1517 1519 1522 1524 1525 1526 1527 1528 1529 1530 1531 1531 1532 1533 1534 1535 1535 1536 1536 1537 1537 1538 1538 1539 1539 1539 1538 1538 1538 1539
1464 1469 1474 1479 1484 1488 1492 1495 1498 1501 1505 1508 1511 1513 1516 1518 1520 1522 1523 1524 1525 1526 1527 1528 1528 1529 1530 1531 1532 1533 1533 1533 1534 1534 1535 1535 1536 1536 1536 1536 1536 1536 1537
1460 1464 1470 1475 1479 1484 1488 1492 1494 1497 1501 1504 1507 1510 1513 1515 1516 1518 1519 1521 1522 1523 1524 1525 1525 1526 1528 1528 1529 1530 1530 1531 1531 1531 1532 1532 1533 1534 1534 1534 1534 1534 1534
1456 1461 1466 1470 1475 1479 1484 1487 1490 1494 1497 1500 1503 1506 1508 1511 1513 1514 1516 1517 1519 1520 1521 1522 1522 1523 1524 1525 1526 1526 1527 1527 1528 1528 1529 1529 1529 1530 1531 1531 1532 1533 1532
1455 1458 1463 1467 1471 1476 1480 1484 1487 1489 1493 1496 1499 1502 1504 1506 1509 1511 1512 1513 1515 1516 1517 1518 1519 1520 1521 1522 1523 1523 1524 1524 1524 1525 1525 1526 1526 1527 1527 1528 1529 1529 1529
1454 1457 1461 1464 1468 1472 1477 1480 1483 1486 1489 1493 1495 1498 1500 1502 1505 1507 1508 1509 1510 1512 1513 1514 1516 1517 1518 1519 1519 1520 1521 1521 1521 1522 1522 1522 1523 1523 1524 1525 1525 1526 1526
1455 1457 1459 1462 1465 1469 1473 1477 1480 1483 1485 1489 1492 1494 1497 1499 1500 1502 1503 1505 1506 1507 1508 1510 1512 1513 1514 1515 1516 1516 1517 1517 1518 1518 1518 1519 1519 1520 1520 1521 1522 1522 1523
1455 1456 1458 1460 1464 1467 1471 1474 1477 1480 1483 1486 1488 1491 1493 1495 1496 1497 1499 1500 1502 1503 1504 1506 1508 1509 1511 1512 1512 1513 1514 1514 1514 1515 1515 1515 1515 1516 1516 1517 1518 1519 1519
1454 1456 1458 1460 1462 1465 1469 1472 1475 1478 1480 1482 1485 1487 1489 1491 1492 1494 1495 1497 1498 1499 1501 1503 1504 1506 1507 1508 1509 1510 1510 1511 1511 1511 1511 1511 1512 1512 1512 1513 1514 1515 1516
1455 1456 1458 1460 1462 1464 1467 1470 1473 1475 1477 1479 1482 1484 1486 1488 1489 1491 1492 1494 1495 1496 1497 1499 1501 1502 1504 1504 1505 1506 1507 1507 1507 1507 1507 1507 1508 1508 1509 1509 1509 1510 1511
1456 1457 1458 1459 1461 1463 1465 1468 1469 1472 1474 1476 1479 1481 1483 1485 1486 1487 1489 1490 1492 1493 1494 1496 1497 1498 1500 1500 1501 1502 1502 1502 1503 1503 1503 1504 1504 1504 1505 1505 1506 1506 1507
1456 1457 1458 1459 1461 1462 1464 1465 1467 1469 1472 1474 1476 1478 1480 1482 1483 1485 1486 1487 1488 1490 1491 1492 1493 1494 1495 1496 1497 1497 1498 1498 1498 1498 1499 1499 1500 1500 1500 1501 1501 1502 1502
1456 1456 1458 1459 1460 1462 1463 1465 1466 1468 1470 1471 1473 1475 1478 1479 1481 1482 1483 1484 1485 1487 1488 1489 1490 1491 1491 1492 1493 1493 1493 1494 1494 1494 1494 1494 1495 1496 1496 1496 1496 1497 1497
1456 1456 1457 1458 1459 1460 1461 1463 1465 1466 1467 1468 1470 1472 1474 1476 1477 1478 1479 1480 1481 1483 1483 1485 1486 1487 1488 1488 1488 1489 1489 1489 1489 1489 1490 1490 1490 1491 1491 1492 1491 1491 1492
1455 1455 1455 1457 1457 1458 1459 1461 1463 1464 1464 1466 1467 1469 1471 1472 1473 1474 1475 1476 1477 1478 1480 1481 1482 1484 1484 1484 1485 1485 1485 1485 1485 1485 1485 1486 1486 1486 1486 1487 1486 1486 1486
1454 1454 1455 1455 1456 1456 1457 1458 1459 1460 1461 1463 1465 1466 1467 1468 1470 1470 1472 1473 1474 1475 1475 1476 1478 1479 1480 1480 1480 1481 1481 1481 1481 1481 1481 1481 1481 1481 1481 1482 1482 1482 1482
1452 1453 1453 1453 1453 1453 1454 1455 1456 1458 1459 1460 1461 1462 1462 1465 1467 1468 1469 1470 1471 1472 1472 1473 1474 1475 1475 1476 1476 1477 1477 1477 1477 1477 1477 1477 1477 1477 1477 1476 1477 1477 1478
1451 1452 1452 1452 1452 1452 1452 1453 1454 1455 1456 1458 1457 1458 1460 1461 1463 1464 1465 1466 1467 1468 1469 1470 1471 1471 1472 1472 1473 1473 1473 1473 1473 1473 1473 1473 1473 1472 1472 1472 1472 1472 1472
1450 1451 1451 1451 1452 1452 1452 1452 1453 1453 1453 1454 1455 1456 1457 1458 1459 1460 1462 1463 1463 1464 1465 1466 1467 1467 1468 1468 1468 1468 1469 1469 1469 1469 1468 1468 1468 1468 1467 1467 1467 1467 1467
1450 1450 1450 1451 1451 1451 1451 1451 1451 1451 1451 1452 1453 1453 1454 1454 1456 1457 1458 1459 1459 1460 1461 1461 1462 1462 1462 1463 1463 1464 1464 1464 1464 1464 1463 1463 1462 1462 1462 1462 1462 1462 1463
1449 1449 1450 1450 1450 1449 1449 1449 1449 1449 1449 1450 1450 1451 1451 1451 1452 1453 1454 1454 1455 1456 1456 1456 1457 1457 1457 1458 1459 1459 1459 1459 1459 1459 1458 1457 1457 1457 1458 1458 1458 1458 1458